Flag for Spain Weather past 2 weeks in Las Palmas, Canary Islands, Spain

Now
81 °F

Passing clouds.


Feels Like: 83 °F
Forecast: 72 / 80 °F
Wind: 22 mph from Northeast

Location: Las Palmas De Gran Canaria / Gando

Current Time: Aug 27, 2014 at 2:42:28 PM

Latest Report: Aug 27, 2014 at 2:00 PM


Visibility: N/A

Pressure: 30.01 "Hg

Humidity: 66%

Dew point: 68 °F

Location of Las PalmasLocation

Historic Weather in Las Palmas — Graph

°F

Las Palmas temperature yesterday

Maximum temperature yesterday: 84 °F (at 1:00 PM)
Minimum temperature yesterday: 72 °F (at 2:30 AM)
Average temperature yesterday: 77 °F

Past Weeks' High & Low Weather Summary

 TemperatureHumidityPressure
High84 °F (Aug 14, 1:00 PM)89% (Aug 20, 8:30 AM)30.09 "Hg (Aug 20, 8:30 AM)
Low72 °F (Aug 13, 3:00 AM)42% (Aug 26, 10:00 AM)29.89 "Hg (Aug 17, 6:00 PM)
Average76 °F69%30.01 "Hg
* Reported Aug 12 1:00 PM — Aug 27 1:30 PM, Las Palmas, Weather by CustomWeather, © 2014

Note: Actual official high and low records may vary slightly from our data, if they occured in-between our weather recording intervals... More about our weather records

Advertising

Las Palmas weather history for previous 24 hours

 ConditionsComfort  
Time TempWeatherWind HumidityBarometerVisibility
1:30 PM
Aug 27
81 °FPassing clouds.22 mph66%30.04 "HgN/A
1:00 PM79 °FPassing clouds.23 mph65%30.04 "HgN/A
12:30 PM79 °FPassing clouds.25 mph65%30.01 "HgN/A
12:00 PM79 °FScattered clouds.24 mph70%30.01 "HgN/A
11:30 AM77 °FScattered clouds.23 mph74%30.04 "HgN/A
11:00 AM77 °FPassing clouds.25 mph69%30.04 "HgN/A
10:30 AM77 °FPassing clouds.24 mph69%30.01 "HgN/A
10:00 AM75 °FPassing clouds.24 mph74%30.01 "HgN/A
9:30 AM75 °FPassing clouds.23 mph74%30.01 "HgN/A
9:00 AM73 °FPassing clouds.24 mph78%30.01 "HgN/A
8:30 AM73 °FPassing clouds.24 mph78%29.98 "HgN/A
8:00 AM73 °FPassing clouds.24 mph78%29.98 "HgN/A
7:30 AM73 °FPassing clouds.23 mph78%29.95 "HgN/A
7:00 AM73 °FPassing clouds.21 mph78%29.95 "HgN/A
6:30 AM73 °FPassing clouds.22 mph78%29.95 "HgN/A
6:00 AM73 °FPassing clouds.22 mph78%29.98 "HgN/A
5:30 AM73 °FPassing clouds.22 mph78%29.98 "HgN/A
5:00 AM73 °FPassing clouds.21 mph78%29.98 "HgN/A
4:30 AM73 °FPassing clouds.22 mph78%29.98 "HgN/A
3:30 AM73 °FPassing clouds.23 mph78%29.98 "HgN/A
3:00 AM73 °FPassing clouds.25 mph78%29.98 "HgN/A
2:30 AM73 °FPassing clouds.28 mph78%29.98 "HgN/A
2:00 AM73 °FPassing clouds.29 mph74%29.98 "HgN/A
1:30 AM73 °FPassing clouds.29 mph78%30.01 "HgN/A
1:00 AM73 °FPassing clouds.29 mph78%30.01 "HgN/A
12:30 AM73 °FPassing clouds.28 mph78%30.01 "HgN/A
12:00 AM75 °FPassing clouds.28 mph74%30.01 "HgN/A
11:30 PM
Aug 26
75 °FPassing clouds.26 mph74%30.01 "HgN/A
11:00 PM75 °FPassing clouds.26 mph74%30.01 "HgN/A
10:30 PM75 °FPassing clouds.26 mph74%30.01 "HgN/A
10:00 PM75 °FPassing clouds.28 mph74%30.01 "HgN/A
9:30 PM75 °FPassing clouds.29 mph74%29.98 "HgN/A
9:00 PM75 °FPassing clouds.26 mph74%29.95 "HgN/A
8:30 PM75 °FPassing clouds.28 mph74%29.95 "HgN/A
8:00 PM77 °FPassing clouds.29 mph69%29.95 "HgN/A
7:30 PM77 °FPassing clouds.30 mph69%29.98 "HgN/A
7:00 PM79 °FPassing clouds.30 mph70%29.95 "HgN/A
6:30 PM79 °FPassing clouds.30 mph70%29.95 "HgN/A
6:00 PM81 °FPassing clouds.29 mph66%29.95 "HgN/A
5:30 PM81 °FPassing clouds.30 mph66%29.95 "HgN/A
5:00 PM81 °FPassing clouds.29 mph66%29.98 "HgN/A
4:30 PM81 °FPassing clouds.31 mph66%29.98 "HgN/A
4:00 PM81 °FPassing clouds.30 mph66%29.98 "HgN/A
3:30 PM81 °FPassing clouds.31 mph66%29.98 "HgN/A
3:00 PM82 °FPassing clouds.31 mph62%29.98 "HgN/A
2:30 PM82 °FPassing clouds.28 mph58%29.98 "HgN/A
2:00 PM82 °FPassing clouds.29 mph58%30.01 "HgN/A
Weather by CustomWeather, © 2014

See weather overviewHow to use our weather pages